RH
100 100 100 100 99 88 86 66 36 26 26 26 18 14 40 71 85 93 100 99 100 97 100 100 97 82 69 62 54 33 24 26 25 19 12 4 4 25 33 54 46 30 24 5
100 100 100 95 100 100 98 96 70 36 26 29 31 24 16 18 31 85 98 100 100 100 100 100 98 93 74 64 57 34 28 31 28 21 11 4 10 32 47 93 100 100 100 28
87 93 90 86 98 98 99 99 98 78 32 28 29 28 22 10 17 64 95 100 99 98 100 100 100 96 78 68 56 37 34 36 33 22 9 4 43 89 79 87 100 100 54 27
63 58 51 77 87 94 97 100 99 97 86 43 32 32 29 15 12 50 96 99 100 100 100 100 100 96 85 71 56 43 40 42 37 24 7 8 48 84 92 84 100 100 59 100
100 100 98 100 100 100 100 100 100 100 100 91 55 42 33 28 17 29 93 100 100 100 100 100 100 100 92 76 57 50 49 49 41 27 6 8 44 91 98 93 100 100 82 60
94 97 95 100 100 100 99 100 100 97 100 99 76 49 38 32 27 22 58 97 100 100 100 100 100 100 98 81 65 58 58 55 44 31 7 8 62 96 89 94 100 100 100 48
100 100 100 99 100 100 100 100 100 100 100 99 72 65 48 38 33 40 79 95 100 100 100 100 100 100 100 88 72 62 65 61 49 37 12 8 43 61 93 90 97 100 100 83
96 100 100 99 96 100 100 100 99 100 100 98 85 80 64 44 42 51 92 91 98 100 100 100 100 100 100 96 81 69 68 68 56 45 20 4 26 40 74 80 96 100 100 100
89 93 100 100 93 93 92 81 100 100 100 100 80 86 78 60 47 36 40 67 95 98 100 100 100 100 100 99 93 78 71 69 66 51 40 4 10 36 60 84 78 98 97 99
58 59 70 79 60 50 54 62 66 92 92 100 100 100 100 86 50 32 25 42 94 100 100 100 100 100 100 100 100 88 79 73 67 61 51 36 4 30 48 52 66 50 61 98
100 72 52 80 98 99 100 72 41 49 68 96 99 100 100 82 49 31 26 70 100 100 100 100 100 100 100 100 100 99 93 81 69 64 59 47 36 4 20 53 50 58 47 75
90 93 88 99 100 100 100 100 100 45 48 60 85 100 91 64 38 31 34 96 100 100 100 100 100 100 100 100 100 100 98 92 79 68 56 57 50 43 12 7 39 48 45 44
72 89 94 98 100 100 100 100 100 100 39 55 67 67 51 42 40 80 100 100 100 100 100 100 100 100 100 100 100 100 100 97 90 77 62 49 49 56 52 36 9 6 40 51
60 70 90 100 100 100 100 100 100 100 100 64 57 68 100 100 100 100 100 100 100 100 100 100 100 100 100 100 100 100 100 100 98 90 73 56 45 41 47 53 54 37 8 5
72 60 75 98 100 100 100 100 100 100 100 100 100 100 100 100 100 100 100 100 100 100 100 100 100 100 100 100 100 100 100 100 100 100 90 71 56 47 43 42 45 53 54 40
51 54 58 78 86 100 100 100 99 100 100 100 100 100 100 100 100 100 100 100 100 100 100 100 100 100 100 100 100 100 100 100 100 100 97 84 75 64 52 48 46 47 46 48
28 31 40 51 65 70 91 100 100 100 100 100 100 100 100 97 98 100 100 100 100 100 100 100 100 100 100 100 100 100 100 100 100 100 96 84 76 72 65 63 60 58 59 60
99 63 24 30 40 55 69 75 97 100 100 100 100 88 91 86 95 100 100 98 100 100 100 100 100 100 100 100 100 100 100 100 100 100 95 85 76 66 64 64 67 67 65 62
50 90 97 60 26 31 45 60 68 77 86 86 97 99 97 96 97 98 91 93 97 98 100 100 96 95 100 100 97 88 91 99 98 94 85 76 69 64 66 66 64 62 59 56
29 20 23 55 89 74 35 32 55 74 76 80 82 86 90 92 93 96 100 100 100 100 98 96 92 71 64 79 84 77 71 54 44 51 63 68 65 67 66 63 57 52 47 44
54 34 25 24 22 25 67 98 78 35 25 29 35 46 62 74 79 78 71 72 83 94 92 81 66 54 48 50 59 68 64 54 48 41 34 33 36 43 54 57 53 52 53 51
27 28 29 30 28 26 23 19 28 80 100 100 71 37 24 25 28 30 34 34 37 40 41 48 49 46 44 42 44 47 54 54 49 43 41 38 38 40 48 57 61 62 63 60
19 20 21 23 28 33 35 33 27 24 30 57 98 100 100 100 89 66 37 26 25 30 32 33 34 34 32 32 34 35 35 38 45 43 39 40 44 44 48 47 46 45 39 36
18 18 21 24 27 28 31 38 46 44 37 37 38 43 77 100 100 100 100 100 97 75 53 40 37 32 30 29 31 37 40 42 46 50 54 61 66 71 71 67 64 59 54 51
18 17 17 22 29 34 38 38 37 39 47 49 46 44 42 41 44 81 100 100 100 100 100 100 100 100 100 100 99 100 100 100 99 97 94 90 88 87 87 84 78 72 64 56
21 19 19 25 33 40 44 46 46 46 45 44 46 49 48 46 43 41 39 40 70 98 100 100 100 100 100 100 100 100 100 100 100 100 96 89 76 64 52 41 34 27 21 17
25 22 24 33 40 46 49 50 51 51 51 53 54 52 48 47 48 46 44 41 39 37 36 39 50 67 84 92 94 88 79 68 55 44 37 31 26 22 20 17 15 13 12 11
Wind_Speed
47 46 46 47 45 47 43 38 42 38 35 34 34 34 32 35 34 33 30 33 38 38 38 39 39 39 39 39 36 36 35 38 42 48 56 61 58 45 38 34 37 35 36 33
52 53 54 54 54 49 47 46 42 42 39 41 35 35 34 34 34 33 28 28 32 35 36 38 38 38 38 37 33 33 32 36 40 46 56 57 45 33 25 26 34 27 32 31
62 59 58 57 56 54 50 47 44 43 44 42 40 37 36 36 35 35 32 32 33 35 36 36 37 37 35 33 31 30 31 34 38 44 52 50 19 22 23 29 26 22 19 20
53 52 53 47 45 44 42 32 35 40 45 44 43 41 39 36 34 34 32 30 32 35 35 34 34 34 32 31 29 28 29 31 35 40 47 42 17 24 24 25 25 27 14 24
32 32 34 28 28 28 30 30 31 36 41 41 39 39 37 36 35 33 34 33 32 34 34 32 31 31 31 29 27 26 28 29 31 36 42 36 15 17 16 24 32 22 20 17
34 34 36 36 34 37 38 38 36 38 41 41 39 39 39 36 36 36 34 32 32 32 33 32 30 30 29 28 24 24 25 26 27 31 36 31 7 5 13 18 23 31 14 8
10 15 22 30 32 34 37 38 38 37 39 43 43 41 39 37 34 33 33 32 31 32 32 31 29 28 28 26 22 22 22 23 23 26 30 27 14 9 7 9 11 24 14 6
14 15 17 13 15 21 26 31 41 42 41 43 39 41 41 38 35 33 32 31 30 28 30 28 28 26 26 25 22 21 20 20 20 21 23 25 15 14 6 2 6 13 13 19
22 21 20 21 27 28 27 26 31 36 40 44 41 41 43 41 37 33 33 33 29 29 28 27 27 26 26 26 23 22 20 18 17 17 16 17 18 16 8 2 4 3 10 20
27 28 25 27 31 33 35 35 31 36 39 43 45 44 40 38 34 30 30 29 28 29 28 27 27 27 26 26 24 22 21 19 16 14 13 12 12 18 17 18 12 9 10 14
18 18 14 17 21 23 24 33 38 32 34 38 44 39 35 33 31 30 27 26 26 28 28 27 27 26 26 26 25 23 22 20 16 13 12 10 8 7 17 21 24 19 20 18
16 12 14 17 21 25 26 22 15 23 30 29 35 36 32 30 29 27 25 25 25 26 26 25 26 25 24 24 24 23 23 21 18 15 12 9 10 6 2 9 28 26 29 28
15 14 19 22 24 24 22 20 13 7 18 23 25 27 25 23 22 21 21 21 21 23 25 25 25 24 24 24 22 21 22 21 19 18 15 13 10 8 7 1 2 15 32 31
18 16 17 20 16 17 17 15 14 8 5 12 15 13 12 14 14 14 16 19 20 21 21 23 24 23 23 25 23 22 21 22 21 21 19 16 14 12 9 8 6 4 7 19
26 20 15 15 14 14 14 13 10 8 5 1 5 8 9 9 10 13 15 17 18 18 19 20 23 24 23 24 25 25 24 24 24 24 21 19 18 16 14 13 12 11 10 10
20 25 18 13 14 13 11 9 8 8 5 5 4 7 6 4 8 9 9 8 8 12 18 19 19 19 21 23 25 26 25 25 24 25 23 21 20 19 18 18 18 18 17 17
20 21 25 24 17 14 11 10 8 6 7 8 9 5 7 13 15 11 10 10 9 7 8 11 14 17 17 19 22 24 24 24 24 24 22 22 21 21 21 22 22 22 22 21
25 22 23 25 24 22 19 16 14 14 14 14 14 17 17 18 21 21 19 19 19 17 14 14 14 15 17 20 21 21 22 23 24 23 23 24 24 24 24 25 24 24 25 25
29 24 22 21 26 27 26 26 25 25 25 27 28 28 29 29 28 26 25 24 24 23 21 19 19 20 21 21 22 23 26 27 27 27 26 27 28 29 29 29 28 29 29 29
33 31 28 26 22 22 29 33 32 33 32 33 34 35 34 32 31 29 27 27 27 26 25 23 24 25 26 28 28 28 29 30 33 34 35 35 34 33 33 33 33 33 34 35
35 33 32 32 30 28 26 24 29 37 41 41 40 39 37 36 34 34 32 31 31 32 32 32 31 31 31 32 33 35 35 35 35 36 37 37 38 38 38 38 37 37 37 37
38 38 38 37 35 34 33 32 30 28 30 31 32 38 44 46 47 46 44 41 39 37 37 37 37 36 37 38 38 38 39 40 40 40 39 39 39 38 38 38 39 39 40 41
41 39 38 37 36 36 34 33 33 33 32 30 29 31 32 32 32 33 36 42 45 46 44 43 42 41 41 40 42 42 41 41 41 42 41 41 41 40 40 41 42 43 43 44
44 43 42 39 37 35 35 33 31 31 32 32 32 31 29 28 29 31 31 30 30 32 35 38 39 41 43 43 42 42 42 42 42 42 41 41 42 42 43 43 44 45 47 48
48 47 44 40 37 35 35 34 33 32 31 31 31 31 31 31 31 30 29 29 30 31 32 32 32 32 33 34 37 38 38 39 39 40 40 41 41 42 43 44 45 47 48 49
49 49 46 40 35 32 31 31 32 33 32 31 31 32 32 31 30 31 31 32 32 32 32 32 33 34 34 35 35 36 37 38 39 39 40 40 41 42 44 45 46 48 49 50
51 50 47 41 37 34 32 31 30 30 30 31 32 31 32 33 34 33 33 33 33 33 34 34 35 35 36 36 37 37 38 39 39 40 41 42 43 44 45 46 47 49 50 51
Wind_Direction
275 274 272 273 274 277 275 271 267 270 272 270 266 270 272 273 273 269 264 259 254 257 254 252 253 258 262 265 272 280 291 299 311 319 322 321 315 309 315 334 332 332 324 305
270 272 273 272 274 275 273 270 267 263 262 266 268 267 266 268 269 272 264 258 252 251 250 250 253 257 262 264 272 281 293 302 315 323 325 323 317 311 316 327 329 320 330 315
275 278 275 273 275 275 274 273 265 260 257 259 261 264 268 270 269 266 269 265 255 249 248 249 253 256 259 263 271 281 293 305 318 326 328 324 315 344 324 330 348 330 342 335
279 277 276 276 275 275 277 264 257 255 254 253 254 259 261 264 269 268 267 264 256 252 251 250 251 255 259 262 268 279 293 306 320 328 329 326 278 330 337 339 348 355 353 360
264 262 265 247 244 243 238 240 234 239 244 245 247 255 257 261 264 266 264 263 261 254 253 253 254 255 259 261 266 279 292 307 321 330 332 326 275 320 27 17 10 353 344 316
278 276 272 265 260 260 259 254 250 247 250 250 250 251 256 259 263 265 263 261 258 256 253 252 252 253 256 258 263 274 289 304 322 331 334 327 260 335 52 36 26 11 18 292
294 268 266 267 261 253 249 253 248 243 250 252 253 252 253 258 263 267 265 264 261 256 252 251 252 252 252 254 260 271 285 301 318 330 338 332 271 264 14 23 32 22 57 139
301 298 302 301 292 285 266 253 255 252 245 248 248 249 249 250 253 254 259 264 266 264 250 250 252 250 248 250 256 264 278 295 309 327 342 338 298 245 294 20 54 41 95 168
295 296 296 308 303 295 287 268 253 240 234 236 236 239 242 246 247 253 258 261 267 266 249 250 253 249 245 248 251 258 269 282 298 315 339 335 307 278 215 127 155 344 144 172
296 286 288 288 292 292 285 277 263 248 240 237 234 236 237 242 246 249 255 258 262 259 247 250 252 249 245 247 249 253 263 272 284 301 318 346 324 266 245 226 255 266 250 229
336 315 313 308 317 323 322 285 264 254 248 250 245 242 234 238 243 245 250 251 254 249 245 247 249 248 247 247 249 251 256 265 273 282 297 318 342 315 254 230 227 247 246 229
13 12 354 344 342 343 347 353 283 255 246 246 252 249 249 240 240 245 246 246 241 242 244 248 247 246 246 247 248 251 253 257 264 270 274 286 301 319 16 239 235 235 232 241
353 343 348 355 351 344 344 353 354 286 245 242 244 248 248 241 243 238 235 235 241 247 246 248 249 245 245 246 246 248 251 252 256 262 264 268 269 277 292 237 193 232 232 225
340 354 346 348 354 347 348 356 4 2 303 265 264 253 229 215 216 225 237 244 248 249 247 245 245 243 242 244 245 244 246 251 253 257 258 261 259 263 269 273 270 239 222 232
324 328 341 343 343 353 2 9 10 16 20 328 215 205 202 212 240 251 256 256 255 253 252 250 245 241 240 243 244 245 247 249 252 255 256 256 258 259 267 272 271 265 249 238
311 313 318 320 328 330 336 342 356 347 337 305 210 207 183 176 203 189 187 185 204 227 237 239 239 239 239 241 242 244 245 247 249 252 253 252 252 256 261 268 273 272 268 262
310 301 308 312 310 309 311 307 293 276 285 264 252 244 263 276 278 269 263 267 265 267 249 238 241 237 236 240 242 242 242 243 244 245 246 251 254 258 263 266 268 267 265 262
343 335 300 299 301 294 287 283 271 259 255 252 251 266 283 278 271 269 271 269 271 270 274 268 263 256 248 244 245 245 244 244 244 246 248 252 256 259 260 261 261 261 259 259
339 332 327 312 287 286 284 274 265 260 257 259 261 265 271 270 270 267 264 262 265 269 271 267 259 263 261 256 255 255 254 253 251 249 251 253 255 257 258 258 259 259 259 258
326 324 324 321 308 294 275 271 271 269 265 264 263 265 269 271 272 268 265 261 258 258 258 259 258 260 260 258 257 256 256 257 257 256 255 254 255 255 256 258 259 260 261 261
320 317 313 310 306 305 297 286 274 266 266 268 269 270 269 268 267 266 268 266 264 261 258 259 260 263 266 265 263 260 260 260 258 259 258 258 257 257 257 259 261 261 260 260
319 315 312 308 304 300 296 292 290 284 275 271 269 266 265 266 267 268 267 266 265 264 265 266 267 267 267 266 264 263 262 262 262 261 261 260 259 259 259 259 259 260 261 261
325 320 315 311 307 304 300 294 287 283 282 281 278 273 271 270 269 268 266 264 263 264 266 267 266 267 267 267 267 266 265 264 263 262 261 261 261 261 261 261 262 263 265 265
333 329 322 314 306 301 298 295 293 287 282 279 277 276 276 274 270 269 268 268 264 260 260 263 265 265 264 262 260 259 260 262 262 262 262 262 263 264 265 266 267 267 268 268
338 335 330 322 314 305 297 294 292 289 285 282 280 277 273 271 270 270 268 266 264 263 263 262 262 263 263 263 262 262 260 260 261 262 263 265 266 268 268 269 271 271 271 271
339 337 334 329 323 317 309 300 291 286 284 281 276 274 274 272 269 266 265 265 264 263 261 260 260 261 260 260 261 261 262 263 263 264 265 266 268 269 271 272 273 274 274 274
341 340 337 333 330 326 321 316 309 301 291 283 278 275 271 270 269 268 266 264 262 262 261 262 262 262 261 261 262 263 264 264 266 267 268 269 271 272 273 274 274 275 276 276